Find Starlink 31096

NORAD ID: 58592 Int'l Des: 2023-200 Owner: SPXS Country: US Constellation: starlink operational
LEOCIRCULAR

当前视图

正在加载3D地球...

About Starlink 31096

Starlink 31096 (NORAD 58592) is a starlink constellation satellite (v2 mini) launched Dec 19, 2023 by SPXS of US. It operates in LEO, CIRCULAR orbit with a mass of 730.00 kg.

即将过境

Passes for default location (London). Set your location on the main map for personalized predictions.

高度历史

Loading altitude history...

两行轨道根数

1 58592U 23200D 26262.02439130 .00101659 00000-0 18378-2 0 9997
2 58592 42.9925 145.2515 0023075 221.5208 138.3898 15.48351698153315
Epoch: Sep 19, 2026 • Age: 53 hours

当前状态

高度 424.6 km
远地点 / 近地点 N/A
速度 7.66 km/s
星下点 30.41°N, 173.37°W
发射日期 Dec 19, 2023
运行时间 2.7 years
类型 internet

技术详情

分类 Payload
质量 730.00 kg
干质量 700.00 kg
长度 0.30 m
跨度 29.00 m
形状 ? Box + pan
制造商 SPXS
平台类型 Starlink V2M
阶段状态 In Orbit
所有者/国家 SPXS/US

Most Searched